www.pogodaiklimat.ru

Погода и климат >> Архив погоды >> Россия >> Магаданская область >> Озеро Джека Лондона


ПОГОДА на Озере Джека Лондона

  • Прогноз погоды на Озере Джека Лондона
  • Монитор погоды на Озере Джека Лондона

АРХИВ ПОГОДЫ на Озере Джека Лондона

Время (UTC), дата Ветер
(напр.,м/с)
 
Видим.   Явления Облачность Т
(С)
Тd
(С)
f
(%)
Тe
(С)
Тes
(С)
Комфортность P
(гПа)
Po
(гПа)
Тmin
(С)
Tmax
(С)
R
(мм)
R24
(мм)
S
(см)
12 13.06 В 3 н/о н/о +6.6 +0.1 63 +4 +4 1015.7 921.3
15 13.06 ЮВ 3 50 км 3/0
[Ci fib]
+4.0 -0.0 75 0 0 1016.6 921.3
18 13.06 ЮВ 2 н/о н/о +1.5 -0.3 88 -2 -2 1017.5 921.3
21 13.06 ЮВ 4 50 км 5/0
[Ci fib]
+6.0 +1.7 74 +2 +5 1015.4 920.8 +1.1
00 14.06 ЮВ 6 н/о н/о +10.3 +2.2 57 +7 1014.3 921.3
03 14.06 В 3
{10}
50 км 3/3 600 м
[Cu hum]
+15.3 +0.3 36 +15 +24 1011.3 920.0
06 14.06 ЮВ 5 н/о н/о +12.9 -0.4 40 +11 +11 1012.1 920.0
09 14.06 ЮВ 4
{10}
50 км 3/1 1000 м
[Cu hum Ci fib]
+9.4 -0.5 50 +7 +8 1013.3 920.0 +15.6
12 14.06 В 4 н/о н/о +7.4 -0.3 58 +4 +4 1015.4 921.3
15 14.06 СЗ 2 50 км ясно +2.4 -0.4 82 -1 -1 1018.7 922.7
18 14.06 ЮВ 1 н/о н/о +0.2 -0.9 92 -2 -2 1019.5 922.7
21 14.06 ЮВ 1 50 км 3/0
[Ac trans]
+9.8 -0.5 49 +10 +14 1016.5 922.9 -0.1
00 15.06 ЮВ 5 н/о н/о +11.4 -1.4 41 +9 +9 1017.0 924.0
03 15.06 ЮВ 5 50 км 8/0
[Ci fib]
+14.5 -3.8 28 +13 +15 1016.0 924.0
06 15.06 ЮЗ 2 н/о н/о +16.6 -5.2 22 +17 +17 1013.9 922.7
09 15.06 Ю 2 50 км 3/0
[Ci fib]
+14.9 -5.0 25 +15 +16 1014.5 922.7 +17.7
12 15.06 штиль 0 н/о н/о +5.3 -0.1 68 +5 +5 1019.1 924.0
15 15.06 СЗ 2 н/о н/о +2.2 -1.1 79 -1 -1 1021.7 925.3
18 15.06 ЮВ 1 н/о н/о +0.4 -1.0 90 -2 -2 1022.3 925.3
21 15.06 Ю 1 н/о н/о +9.1 -0.1 53 +9 +9 1018.1 924.2 -0.3
00 16.06 ЮВ 3 н/о н/о +14.0 -2.0 33 +13 +13 1016.1 924.0
03 16.06 ЮВ 4 50 км 10/1 600 м
[Cu hum Cs]
+16.3 -2.2 28 +16 +16 1014.0 922.7
06 16.06 ЮВ 5 н/о н/о +11.0 -1.1 43 +9 +9 1014.2 921.3
09 16.06 Ю 5 50 км 8/3 600 м
[Sc Ac trans]
+11.9 -4.3 32 +10 +10 1012.5 920.0 +18.8
12 16.06 ЮВ 7
{11}
н/о н/о +6.5 +2.4 75 +2 +2 1015.7 921.3
15 16.06 В 4
{10}
10 км слаб. ливневой дождь 10/10 600 м
[Cb cap]
+4.3 +3.3 93 -0 -0 1014.7 919.7
18 16.06 ЮВ 5 н/о н/о +4.1 +2.3 88 -1 -1 1015.1 920.0
21 16.06 ЮВ 7-11
{11}
50 км 8/8 600 м
[Cb cap]
+5.1 -1.0 65 0 0 1015.0 920.1 +3.5 3
00 17.06 ЮВ 7 н/о н/о +6.0 +0.1 66 +1 1015.9 921.3
03 17.06 Ю 5 50 км 5/5 600 м
[Sc diur, vesp]
+9.2 -1.0 49 +6 +10 1014.8 921.3
06 17.06 ЮВ 4 н/о н/о +8.0 -0.5 55 +5 +5 1015.2 921.3
09 17.06 ЮВ 2 50 км 10/10 600 м
[Cb cap]
+7.9 -0.1 57 +6 +6 1015.2 921.3 +10.9
12 17.06 ЮВ 2 н/о н/о +5.0 +1.1 76 +3 +3 1016.2 921.3
15 17.06 ЮЗ 1 50 км 10/10 600 м
[Cb cap]
+3.4 +1.8 89 +2 +2 1015.3 920.0
18 17.06 штиль 0 н/о н/о +3.6 +2.3 91 +2 +2 1015.2 920.0
21 17.06 З 3 10 км слаб. ливневой дождь 10/10 600 м
[Cb cap]
+5.8 +4.4 91 +2 +2 1013.5 919.1 +2.7 3
00 18.06 С 6-10
{10}
н/о н/о +6.2 +4.8 91 +1 +1 1014.3 920.0
03 18.06 ЮЗ 1
{10}
10 км слаб. ливневой дождь 10/10 600 м
[Cb cap]
+8.8 +6.2 84 +8 +8 1017.7 918.4
06 18.06 штиль 0 н/о н/о +9.2 +5.7 79 +9 +9 1011.8 918.7
09 18.06 С 3 50 км 10/10 600 м
[Cb cap]
+7.6 +5.2 85 +5 +5 1013.8 920.0 +9.6 0.8
12 18.06 СЗ 1 н/о н/о +7.0 +4.8 86 +6 +6 1014.0 920.0
15 18.06 СЗ 3 50 км 10/10 600 м
[Cb cap]
+6.5 +5.0 90 +3 +3 1012.7 918.7
18 18.06 СЗ 6 н/о н/о +8.2 +5.8 85 +4 +4 1012.1 918.7
21 18.06 С 5 50 км 10/10 600 м
[Cb cap]
+10.3 +6.6 78 +7 +7 1010.9 918.3 +6.2
00 19.06 С 5 н/о н/о +11.5 +7.2 75 +9 +9 1011.0 918.7
03 19.06 СЗ 7 50 км 9/9 600 м
[Cb cap]
+14.0 +7.3 64 +12 +12 1010.1 918.7
06 19.06 СЗ 4 н/о н/о +11.3 +8.3 82 +9 +9 1011.0 918.7
09 19.06 З 3 50 км {ливн. осадки} 10/10 600 м
[Cb cap]
+9.1 +6.7 85 +7 +7 1011.8 918.7 +14.6 0.5
18 19.06 З 2 н/о н/о +9.5 +8.4 93 +8 1011.6 918.7
21 19.06 ЮЗ 1 10 км слаб. ливневой дождь 10/10 600 м
[Cb cap]
+8.9 +7.8 93 +8 +8 1010.2 917.1 +8.1 3
00 20.06 ЮЗ 1 н/о н/о +10.5 +9.3 92 +10 1011.2 918.7
03 20.06 З 2 10 км слаб. ливневой дождь 10 баллов +12.0 +10.6 91 +11 +11 1009.1 917.3
06 20.06 СЗ 3 н/о н/о +11.8 +9.0 83 +10 1009.3 917.3

 

Местоположение метеостанции Озеро Джека Лондона (Магаданская область, Россия): широта 62.08 долгота 149.50 высота над уровнем моря 807 м.

В архиве по умолчанию представлена погода на Озере Джека Лондона за последнюю неделю. Архивные данные за месяц целиком и за предыдущие месяцы, начиная с января 2011 года, Вы можете получить, выбрав интересующий диапазон дат из раскрывающегося списка и нажав кнопку "Ввод!".


*Определитесь, кто Вы:
робот инопланетянин человек

Внимание! Время в таблицах - всемирное. Для получения местного времени необходимо прибавить поправку, которая равна 11 ч.

Смотрите также архив погоды в соседних городах и на ближайших метеорологических станциях:

Погода в Ягодной (Магаданская область, Россия) (48 км)
Погода в Усть-Бохапче (Магаданская область, Россия) (57 км)
Погода в Совхозе Эльген (Магаданская область, Россия) (98 км)
Погода в Колымской (Магаданская область, Россия) (103 км)
Погода в Сусумане (Магаданская область, Россия) (106 км)
Погода в Усть-Омчуге (Магаданская область, Россия) (107 км)
Погода в Среднекане (Магаданская область, Россия) (151 км)
Погода в Сеймчане (Магаданская область, Россия) (175 км)
Погода в Мадауне (Магаданская область, Россия) (177 км)
Погода в Талой (Магаданская область, Россия) (182 км)

Пояснения к столбцам:

Ветер - указаны скорость ветра в м/с - средняя за 10 мин, порывы в срок и между сроками (в фигурных скобках) и направление, откуда дует ветер: С - северный, СВ - северо-восточный, В - восточный, ЮВ - юго-восточный, Ю - южный, ЮЗ - юго-западный, З - западный, СЗ - северо-западный.
Видимость - горизонтальная дальность видимости в метрах или километрах. При видимости от 1 до 10 км при отсутствии осадков обычно наблюдается дымка, при ухудшении видимости до 1 км и менее - туман. В сухую погоду видимость может ухудшаться дымом, пылью или мглою.
Явления - указаны атмосферные явления, наблюдавшиеся в срок или в последний час перед сроком; фигурными скобками обозначены явления, наблюдавшиеся между сроками (за 1-3 часа до срока); квадратными скобками обозначены град или гололедные отложения с указанием их диаметра в мм.
Облачность - указаны через наклонную черту общая и нижняя облачность в баллах и высота нижней границы облаков в метрах; квадратными скобками обозначены формы облаков: Ci - перистые, Cs - перисто-слоистые, Cc - перисто-кучевые, Ac - высококучевые, As - высокослоистые, Sc - слоисто-кучевые, Ns - слоисто-дождевые, Cu - кучевые, Cb - кучево-дождевые. Подробнее классификацию облаков см. в Атласе облаков (PDF).
T - Температура воздуха - температура, измеренная на высоте 2 м над землей.
Td - Температура точки росы - температура, при понижении до которой содержащийся в воздухе водяной пар достигнет насыщения.
f - Относительная влажность воздуха - влажноcть воздуха, измеренная на высоте 2 м над землей.
Te - Эффективная температура - температура, которую ощущает одетый по сезону человек в тени. Характеристика душности погоды. При расчете учитывается влияние влажности воздуха и скорости ветра на теплоощущения человека.
Tes - Эффективная температура на солнце - температура, которую ощущает человек, с поправкой на солнечный нагрев. Характеристика знойности погоды. Зависит от высоты солнца над горизонтом, облачности и скорости ветра. Ночью, в пасмурную погоду, а также при ветре 12 м/с и более поправка равна нулю.
P - Атмосферное давление - приведенное к уровню моря атмосферное давление.
Po - Атмосферное давление - измеренное на уровне метеостанции атмосферное давление.
Tmin - Минимальная температура - минимум температуры воздуха на высоте 2 м над землей.
Tmax - Максимальная температура - максимум температуры воздуха на высоте 2 м над землей.
R - Количество осадков - Количество выпавших осадков за период времени, мм. При наведении курсора мыши на число - период времени, за который выпало указанное количество осадков.
R24 - Количество осадков - Количество выпавших осадков за 24 часа, мм.
S - Снежный покров - Высота снежного покрова, см. При наведении курсора мыши на число - состояние снежного покрова и степень покрытия местности в баллах.